Content
SEND FEEDBACK

Daily
Averages
Monthly
Summary
United Kingdom

NUNEHAM COURTENAY, ENGLAND


Home > Europe > United Kingdom > England
Elevation: 207 feet     Latitude: 51 42N     Longitude: 001 12W

WEATHER
 
SELECT A DAY
Number of Records: 156,498;   Date Range: 7/1/96 - 8/25/14
 
SHARE

PRINT THIS DATA

[ ← Previous Day ]
WEATHER ALMANAC - NOVEMBER 1, 2013
[ Next Day → ]
[ °C ]   °F
Weather ElementAverageHighLow
Temperature53.6 °F57.2 °F (1:22 pm)50 °F (7:50 am)
Dewpoint51.2 °F53.6 °F (11:50 am)48.2 °F (4:50 am)
Humidity91.4 %100 % (7:50 am)80 % (3:00 pm)
Barometer29.75 in29.89 in (12:50 am)29.56 in (9:50 pm)
Wind Speed8.6 mph12.7 mph (10:50 am)
Weather ElementAverage
Visibility6.4 mi
Wind DirectionSSE (162.4 °)

Weather ElementTotal
Precipitation---
Heating Degree Days11.4 (Base 65)
Growing Degree Days3.6 (Base 50)
Averaged from 38 records on November 1, 2013
WEATHER CONDITIONS BREAKOUT
WIND DIRECTION BREAKOUT
WEATHER BY HOUR - NOVEMBER 1, 2013
[ °C ]   °F
Local TimeTemperatureDewpointHumidityBarometerVisibilityWind DirectionWind SpeedGust SpeedPrecipitationEventsConditions
12:50 AM53.6 °F50.0 °F88 %29.89 in6.2 miSouth (180°)11.5 mphMostly Cloudy
1:50 AM53.6 °F50.0 °F88 %29.86 in6.2 miSouth (190°)10.4 mphMostly Cloudy
2:50 AM53.6 °F51.8 °F94 %29.86 in6.2 miSW (220°)10.4 mphMostly Cloudy
3:00 AM54.0 °F51.0 °F87 %29.88 in12.0 miSW (220°)10.4 mphMostly Cloudy
3:50 AM53.6 °F50.0 °F88 %29.86 in6.2 miSW (230°)6.9 mphMostly Cloudy
4:50 AM51.8 °F48.2 °F88 %29.86 inSW (220°)6.9 mphClear
5:50 AM51.8 °F50.0 °F94 %29.86 in6.2 miSSW (200°)6.9 mphMostly Cloudy
6:50 AM51.8 °F48.2 °F88 %29.86 inSouth (190°)5.8 mphClear
7:50 AM50.0 °F50.0 °F100 %29.86 inSSE (150°)8.1 mphClear
8:50 AM51.8 °F50.0 °F94 %29.86 inSSE (160°)10.4 mphClear
9:00 AM52.0 °F49.0 °F87 %29.88 in19.0 miSSE (160°)10.4 mphMostly Cloudy
9:50 AM53.6 °F50.0 °F88 %29.83 in6.2 miSSE (160°)9.2 mphMostly Cloudy
10:50 AM55.4 °F51.8 °F88 %29.83 in6.2 miSouth (170°)12.7 mphOvercast
11:32 AM55.4 °F51.8 °F88 %29.80 in4.3 miSouth (170°)11.5 mphLight Drizzle
11:50 AM55.4 °F53.6 °F94 %29.80 in2.5 miSouth (170°)11.5 mphRainRain
12:00 PM55.0 °F53.0 °F91 %29.81 in2.0 miSouth (170°)11.5 mphRainHeavy Rain
12:15 PM55.4 °F53.6 °F94 %29.77 in6.2 miSouth (170°)10.4 mphRainLight Rain
12:22 PM55.4 °F53.6 °F94 %29.77 in4.3 miSouth (180°)9.2 mphRainLight Rain
12:50 PM55.4 °F53.6 °F94 %29.77 in6.2 miSouth (180°)8.1 mphOvercast
1:22 PM57.2 °F53.6 °F88 %29.74 in6.2 miSouth (180°)8.1 mphMostly Cloudy
1:50 PM55.4 °F51.8 °F88 %29.74 in6.2 miSouth (180°)12.7 mphMostly Cloudy
2:50 PM55.4 °F51.8 °F88 %29.71 in6.2 miSouth (180°)12.7 mphMostly Cloudy
3:00 PM56.0 °F51.0 °F80 %29.73 in19.0 miSouth (180°)12.7 mphPartly Cloudy
3:15 PM55.4 °F51.8 °F88 %29.71 in6.2 miSouth (180°)10.4 mphMostly Cloudy
3:32 PM55.4 °F51.8 °F88 %29.71 in2.5 miSouth (190°)10.4 mphRainRain
3:38 PM55.4 °F51.8 °F88 %29.71 in6.2 miSouth (190°)9.2 mphOvercast
3:50 PM55.4 °F51.8 °F88 %29.71 in6.2 miSouth (180°)8.1 mphMostly Cloudy
4:50 PM53.6 °F51.8 °F94 %29.68 in6.2 miSSE (160°)9.2 mphRainLight Rain
5:09 PM53.6 °F51.8 °F94 %29.68 in4.3 miSE (140°)9.2 mphRainRain
5:50 PM53.6 °F51.8 °F94 %29.65 in6.2 miSSE (160°)8.1 mphLight Drizzle
6:00 PM53.0 °F52.0 °F95 %29.67 in4.0 miSSE (160°)8.1 mphRainLight Drizzle
6:50 PM53.6 °F51.8 °F94 %29.62 in6.2 miSE (140°)6.9 mphMostly Cloudy
7:50 PM51.8 °F50.0 °F94 %29.62 in6.2 miSE (130°)4.6 mphMostly Cloudy
8:50 PM51.8 °F50.0 °F94 %29.59 in6.2 miESE (110°)3.5 mphOvercast
9:00 PM51.0 °F50.0 °F96 %29.60 in7.0 miESE (110°)3.5 mphOvercast
9:50 PM51.8 °F50.0 °F94 %29.56 in4.3 miENE (60°)1.2 mphOvercast
10:50 PM50.0 °F50.0 °F100 %29.56 in4.3 miNE (40°)4.6 mphOvercast
11:50 PM50.0 °F50.0 °F100 %29.56 in5.0 miNorth (10°)1.2 mphOvercast
Hourly data recorded from EGUB, located miles away from Nuneham Courtenay, England







STORIES FROM OUR PARTNERS